This is the latest recevied weather packets stored in our database for station/object K3SV. If no packets are shown the sender has not sent any weather packets the latest 1 day(s).
| Time | Temp. | Humidity | Pressure | Rain* | Wind** | Luminosity | Snow |
|---|---|---|---|---|---|---|---|
| 1778093620 | 32.78° C | 47% | 1015.7 hPa | 0 mm | - | 697 W/m² | - |
| 1778093317 | 32.78° C | 49% | 1015.7 hPa | 0 mm | - | 738 W/m² | - |
| 1778090286 | 31.67° C | 49% | 1016.3 hPa | 0 mm | - | 625 W/m² | - |
| 1778089983 | 31.67° C | 50% | 1016.2 hPa | 0 mm | - | 703 W/m² | - |
| 1778089075 | 31.67° C | 51% | 1016.4 hPa | 0 mm | - | 678 W/m² | - |
| 1778088165 | 30.56° C | 53% | 1016.6 hPa | 0 mm | - | 726 W/m² | - |
| 1778086349 | 31.67° C | 51% | 1017 hPa | 0 mm | - | 752 W/m² | - |
| 1778085743 | 30.56° C | 55% | 1016.9 hPa | 0 mm | - | 682 W/m² | - |
| 1778084831 | 30.56° C | 55% | 1017.2 hPa | 0 mm | - | 633 W/m² | - |
| 1778083620 | 30° C | 59% | 1017.2 hPa | 0 mm | - | 555 W/m² | - |
| 1778083015 | 30° C | 59% | 1017.1 hPa | 0 mm | - | 570 W/m² | - |
| 1778081574 | 29.44° C | 63% | 1017.3 hPa | 0 mm | - | 575 W/m² | - |
| 1778080363 | 28.89° C | 64% | 1017.1 hPa | 0 mm | - | 566 W/m² | - |
| 1778080060 | 28.89° C | 65% | 1017.4 hPa | 0 mm | - | 533 W/m² | - |
| 1778079757 | 28.33° C | 68% | 1017.2 hPa | 0 mm | - | 533 W/m² | - |
| 1778079454 | 28.89° C | 67% | 1017.4 hPa | 0 mm | - | 552 W/m² | - |
| 1778078545 | 27.78° C | 72% | 1017.3 hPa | 0 mm | - | 509 W/m² | - |
| 1778078242 | 27.78° C | 72% | 1016.9 hPa | 0 mm | - | 475 W/m² | - |
| 1778077638 | 27.22° C | 73% | 1017.1 hPa | 0 mm | - | 486 W/m² | - |
| 1778075519 | 25.56° C | 81% | 1017.2 hPa | 0 mm | - | 359 W/m² | - |
| 1778075215 | 25.56° C | 81% | 1017.3 hPa | 0 mm | - | 347 W/m² | - |
| 1778074609 | 25.56° C | 81% | 1017.3 hPa | 0 mm | - | 277 W/m² | - |
| 1778074003 | 24.44° C | 83% | 1017.2 hPa | 0 mm | - | 270 W/m² | - |
| 1778072488 | 23.89° C | 86% | 1017.1 hPa | 0 mm | - | 209 W/m² | - |
| 1778072186 | 23.89° C | 86% | 1016.9 hPa | 0 mm | - | 231 W/m² | - |
* Rain latest hour (hover to see other rain measurements)
** Current wind speed in m/s (hover to see current wind gust speed)